ATLAS CENTAUR 2 R/B 1 00694U 63047A 10067.63685929 +.00000698 +00000-0 +83197-4 0 02113 2 00694 030.3557 305.7742 0616278 141.9538 222.6233 13.95161692310404 THOR AGENA D R/B 1 00733U 64002A 10067.70568974 +.00000004 +00000-0 +19745-4 0 00158 2 00733 099.0917 107.2729 0034310 348.0074 012.0283 14.31286504402045 SL-3 R/B 1 00877U 64053B 10066.17478994 -.00000052 00000-0 14220-4 0 3379 2 00877 065.0793 134.1036 0052037 069.9600 290.7095 14.58109001413682 SL-8 R/B 1 02802U 67045B 10066.16824237 -.00000015 00000-0 35975-5 0 2466 2 02802 074.0080 071.7451 0066931 044.8016 315.8506 14.42488648245431 SL-8 R/B 1 03230U 68040B 10066.15727144 .00000229 00000-0 31494-4 0 8997 2 03230 074.0369 139.2354 0033024 076.2119 284.2743 14.84300999240265 OAO 2 1 03597U 68110A 10067.42905159 +.00000029 +00000-0 +13601-4 0 02853 2 03597 034.9945 060.4495 0005934 237.5267 122.4849 14.44884955173194 ISIS 1 1 03669U 69009A 10066.19516141 .00000016 00000-0 63617-5 0 153 2 03669 088.4117 082.5866 1714663 352.9814 004.9722 11.28867551688886 METEOR 1-1 1 03835U 69029A 10066.17484998 .00007125 00000-0 12778-3 0 3221 2 03835 081.1616 084.9171 0008494 040.8113 319.3768 15.49699067238080 SERT 2 1 04327U 70009A 10067.59810206 +.00000032 +00000-0 +10000-3 0 01369 2 04327 099.1764 289.0742 0005163 008.1400 351.9816 13.58234287986698 SL-3 R/B 1 04814U 70113B 10067.71313587 +.00001571 +00000-0 +83804-4 0 02059 2 04814 081.1492 275.7729 0041542 046.3070 314.1598 15.13819561130251 SL-3 R/B 1 05118U 71028B 10067.74908977 -.00000012 +00000-0 -27131-5 0 03806 2 05118 081.2375 297.5100 0049792 067.1218 293.5218 15.02445026103848 ASTEX 1 1 05560U 71089A 10067.55466794 +.00000071 +00000-0 +20197-4 0 00511 2 05560 092.7123 068.5640 0015473 312.1568 047.8319 14.46238424016813 SL-8 R/B 1 05730U 71119B 10067.77276045 +.00001070 +00000-0 +82151-4 0 04103 2 05730 073.8992 062.6803 0800465 098.8545 270.4010 13.77381718836717 COSMOS 482 DESCENT CRAFT 1 06073U 72023E 10066.12596466 .00013451 27191-5 10257-3 0 7289 2 06073 052.1194 101.7333 2178706 236.1375 101.3107 11.23227584 44800 OAO 3 (COPERNICUS) 1 06153U 72065A 10066.18355071 .00000041 00000-0 13556-4 0 4183 2 06153 035.0084 012.3330 0007168 007.0982 352.9822 14.56592685992818 ATLAS CENTAUR R/B 1 06155U 72065B 10067.91545518 +.00000113 +00000-0 +22980-4 0 01036 2 06155 035.0063 018.0303 0041006 267.6917 091.9090 14.68027776000837 OPS 8180 (RADCAT) 1 06212U 72076A 10067.75906249 +.00003742 +00000-0 +13198-3 0 09608 2 06212 098.5690 121.5391 0003775 152.3581 207.7818 15.30057548163314 SL-8 R/B 1 07004U 73107B 10066.14988243 .00002945 00000-0 11874-3 0 2673 2 07004 073.9636 097.2081 0427524 258.6166 096.6692 14.69112270838901 SL-8 R/B 1 07338U 74044B 10066.04303362 .00014767 00000-0 28176-3 0 1099 2 07338 082.8834 189.7234 0207120 221.2342 137.3090 15.27883702839688 DELTA 1 R/B 1 08063U 75072B 10067.76210888 +.00009414 +00000-0 +25950-3 0 05002 2 08063 089.1452 314.1581 0932675 176.7114 184.0836 13.72123417504910 SL-8 R/B 1 08459U 75112B 10067.79744350 +.00000048 +00000-0 +25362-4 0 08943 2 08459 074.0617 305.1475 0015554 061.9870 298.2855 14.35899480792670 SL-3 R/B 1 10114U 77057B 10065.78095980 .00001040 00000-0 69745-4 0 655 2 10114 097.4737 321.5714 0016866 168.8567 191.3059 15.08879029781561 SL-3 R/B 1 10861U 78045B 10067.75209847 +.00002355 +00000-0 +59374-4 0 02637 2 10861 081.2016 121.7726 0021216 144.3478 215.9180 15.39172638746003 SEASAT 1 1 10967U 78064A 10067.74219347 -.00000060 +00000-0 +23275-4 0 00619 2 10967 108.0107 155.2266 0003564 250.8084 109.2673 14.42184951663310 SL-14 R/B 1 11267U 79011B 10065.99201999 .00000129 00000-0 11602-4 0 509 2 11267 082.5220 216.2018 0019517 061.6592 298.6599 14.87037588680058 SL-8 R/B 1 11574U 79089B 10067.40109918 +.00000058 +00000-0 +26997-4 0 05184 2 11574 074.0667 080.6589 0016746 299.4566 060.4920 14.39624417594562 SL-14 R/B 1 11672U 80005B 10066.10734416 .00000115 00000-0 10316-4 0 6606 2 11672 082.5107 065.3882 0018548 127.5540 232.7371 14.86088436628250 SL-3 R/B 1 11849U 80051B 10066.14236323 .00001282 00000-0 52878-4 0 778 2 11849 097.7334 211.0564 0012099 055.6615 304.5728 15.25966906627762 SL-3 R/B 1 11933U 80069B 10067.70106765 +.00001878 +00000-0 +54581-4 0 09425 2 11933 081.2165 079.7080 0023550 020.7657 339.4532 15.34634663621723 COSMOS 1220 1 12054U 80089A 10067.77621357 +.00002685 +00000-0 +11672-3 0 02173 2 12054 064.9746 163.4685 0040949 030.6597 329.6918 15.23955407508539 SL-8 R/B 1 12139U 81003B 10066.05524579 .00003420 00000-0 20628-3 0 9987 2 12139 082.9581 208.9429 0591818 155.5235 207.5318 14.24891177464614 SL-8 R/B 1 12389U 81033B 10067.65879159 +.00006772 +00000-0 +21486-3 0 06030 2 12389 082.9120 089.3442 0404218 037.5557 325.3133 14.78958762476068 SL-3 R/B 1 12465U 81046B 10067.76481577 +.00000296 +00000-0 +19047-4 0 00607 2 12465 081.2294 177.0520 0038697 140.5591 219.8473 15.04524866566738 METEOR PRIRODA 1 12585U 81065A 10067.83205808 +.00000720 +00000-0 +51351-4 0 06017 2 12585 097.3723 108.6500 0018341 249.7151 110.2101 15.07407828560425 SL-3 R/B 1 12904U 81103B 10066.15551876 .00000357 00000-0 27581-4 0 1488 2 12904 081.1775 055.5139 0033505 126.5553 233.8702 14.98599181 93741 SL-3 R/B 1 13068U 82013B 10067.77005820 +.00000711 +00000-0 +54441-4 0 01527 2 13068 081.2093 359.6861 0026167 046.0172 314.3246 15.00373254524209 SL-3 R/B 1 13154U 82039B 10067.79787700 +.00000360 +00000-0 +32260-4 0 09069 2 13154 081.1873 336.9262 0043185 264.7839 094.8454 14.92817912506587 COSMOS 1400 1 13402U 82079A 10065.42252519 .00002780 00000-0 97887-4 0 113 2 13402 081.1334 171.7707 0006493 310.1732 049.8953 15.28963656509330 SL-3 R/B 1 13403U 82079B 10067.76831868 +.00000094 +00000-0 +58006-5 0 02729 2 13403 081.1708 054.4713 0039573 346.9697 013.0514 14.99223459497634 SL-3 R/B 1 13819U 83010B 10067.83129079 +.00001175 +00000-0 +79436-4 0 06788 2 13819 081.1086 358.3011 0038966 103.7348 256.8191 15.05184051472787 COSMOS 1484 1 14207U 83075A 10067.81185918 +.00005666 +00000-0 +11550-3 0 05446 2 14207 097.5635 201.4739 0015460 347.7148 012.3750 15.46542902902240 SL-3 R/B 1 14208U 83075B 10067.80908567 +.00000120 +00000-0 +13589-4 0 08548 2 14208 097.6425 123.9312 0045917 208.4590 151.4136 15.02314764447532 COSMOS 1500 1 14372U 83099A 10067.78156552 +.00000794 +00000-0 +54946-4 0 03625 2 14372 082.5288 057.6125 0012893 194.2088 165.8796 15.04279560436715 SL-8 R/B 1 14484U 83111B 10067.79928724 +.00005013 +00000-0 +15963-3 0 01467 2 14484 082.8488 317.4579 0426579 166.1554 195.1821 14.74429831339362 COSMOS 1536 1 14699U 84013A 10065.43359397 -.00000092 00000-0 -10091-4 0 7222 2 14699 082.5287 009.6951 0016378 079.4180 280.8892 14.98159562414003 COSMOS 1544 1 14819U 84027A 10065.27565486 .00001401 00000-0 88924-4 0 7325 2 14819 082.5299 136.2324 0015454 321.6912 038.3203 15.08025173412877 SL-14 R/B 1 14820U 84027B 10066.12983655 .00000131 00000-0 13405-4 0 3365 2 14820 082.5427 306.2052 0018905 178.1957 181.9331 14.82119419401926 ERBS 1 15354U 84108B 10066.22004991 -.00000085 00000-0 10935-4 0 3258 2 15354 056.9866 149.2063 0018360 172.8330 187.2997 15.16030755391949 SL-8 R/B 1 15483U 85006B 10065.83589198 -.00000013 00000-0 43625-5 0 39 2 15483 074.0437 192.0964 0018535 109.2031 251.1128 14.35248885314902 SL-12 R/B(2) 1 15772U 85042D 10067.79639220 +.00000059 +00000-0 +49186-4 0 01889 2 15772 071.1069 180.4660 0037070 215.2231 144.6421 14.20720799283967 SL-14 R/B 1 15945U 85069B 10066.17851947 .00000086 00000-0 76479-5 0 3139 2 15945 082.5243 100.2009 0021943 049.5983 310.7138 14.82456407326903 SL-3 R/B 1 16111U 85090B 10067.74594263 +.00000935 +00000-0 +46104-4 0 01871 2 16111 097.5554 133.4870 0036044 119.7007 240.7814 15.19926563337281 SL-16 R/B 1 16182U 85097B 10065.86630425 -.00000242 00000-0 -98424-4 0 894 2 16182 071.0003 201.8873 0007627 180.1304 179.9812 14.15963533259754 SL-14 R/B 1 16496U 86006B 10066.12998972 .00000099 00000-0 93099-5 0 2262 2 16496 082.5278 337.8566 0019155 190.0188 170.0641 14.82556914303185 SL-14 R/B 1 16792U 86046B 10067.84086772 +.00000116 +00000-0 +11622-4 0 01261 2 16792 082.4842 179.8118 0026373 034.8636 325.4302 14.81686099281205 SL-14 R/B 1 16882U 86055B 10067.76199159 +.00000129 +00000-0 +13261-4 0 01227 2 16882 082.5207 198.1540 0020790 149.0965 211.1498 14.81635199274209 COSMOS 1812 1 17295U 87003A 10067.85338907 +.00000137 +00000-0 +81414-5 0 01423 2 17295 082.5216 211.6862 0011498 210.5087 149.5473 15.02563707258477 SL-14 R/B 1 17567U 87024B 10067.83296126 +.00000107 +00000-0 +10348-4 0 00201 2 17567 082.5311 163.1306 0021410 100.1584 260.2059 14.82201794242656 COSMOS 1833 1 17589U 87027A 10066.04260957 -.00000104 00000-0 -29914-4 0 5408 2 17589 070.9097 012.5639 0005199 033.2449 326.8987 14.12729192184733 SL-16 R/B 1 17590U 87027B 10065.94978750 .00000227 00000-0 13790-3 0 4873 2 17590 071.0055 348.4506 0003780 022.5448 337.5869 14.16482452187537 SL-14 R/B 1 17912U 87038B 10066.20343210 .00000093 00000-0 89101-5 0 92 2 17912 082.5013 022.1621 0020479 342.2845 017.7642 14.81504461233868 COSMOS 1844 1 17973U 87041A 10065.23437669 .00000214 00000-0 13788-3 0 5622 2 17973 070.8983 118.0476 0030470 158.6874 201.5516 14.13740279177175 SL-14 R/B 1 18153U 87055B 10067.89379827 +.00000070 +00000-0 +58100-5 0 00188 2 18153 082.4958 076.2175 0021679 182.5560 177.5545 14.81731837224685 COSMOS 1867 1 18187U 87060A 10067.49908443 -.00000029 +00000-0 +27197-4 0 08295 2 18187 065.0106 105.3259 0017154 279.9422 079.9711 14.30862323183720 SL-14 R/B 1 18749U 88001B 10067.67735081 +.00000079 +00000-0 +69280-5 0 00242 2 18749 082.5094 272.1002 0021339 058.5752 301.7541 14.81673267196779 COSMOS 1933 1 18958U 88020A 10065.28227548 .00000692 00000-0 58045-4 0 9183 2 18958 082.5312 136.6376 0011651 289.3106 070.6868 14.96818574192830 SL-3 R/B 1 19046U 88032B 10067.73017601 +.00000266 +00000-0 +28963-4 0 04474 2 19046 097.8697 111.7493 0036751 282.9655 076.7513 14.95991835174569 SL-16 R/B 1 19120U 88039B 10065.87873943 -.00000209 00000-0 -77324-4 0 8665 2 19120 071.0128 182.2398 0024652 300.0396 059.8274 14.18593045129150 COSMOS 1953 1 19210U 88050A 10067.96461240 +.00000789 +00000-0 +66697-4 0 00342 2 19210 082.5155 071.3024 0014691 263.4501 096.5085 14.96710898179294 SL-8 R/B 1 19257U 88053B 10066.16315835 -.00000067 00000-0 -13934-4 0 8227 2 19257 074.0469 060.8391 0021669 250.6532 109.2262 14.36415846136857 COSMOS 1975 1 19573U 88093A 10067.91419791 +.00000006 +00000-0 -18550-5 0 08044 2 19573 082.5252 017.0078 0015777 284.3614 075.5843 14.95483381161601 SL-14 R/B 1 19574U 88093B 10067.67871899 +.00000082 +00000-0 +73468-5 0 00032 2 19574 082.5296 106.6901 0020754 225.8425 134.1085 14.81772812155722 SL-16 R/B 1 19650U 88102B 10067.74760400 +.00000278 +00000-0 +16636-3 0 01042 2 19650 070.9970 201.7959 0015915 265.5965 094.3342 14.15523981099919 INTERCOSMOS 24 1 20261U 89080A 10067.72233840 +.00000255 +00000-0 +66976-4 0 01104 2 20261 082.5851 288.3964 1216025 092.5435 281.5100 12.53468126932725 SL-14 R/B 1 20262U 89080C 10067.77418312 +.00000067 +00000-0 +15368-4 0 06092 2 20262 082.5962 316.4803 1241455 189.4334 168.1327 12.47775663930160 DELTA 1 R/B 1 20323U 89089B 10067.94224272 -.00000010 +00000-0 +65450-5 0 07096 2 20323 097.0828 043.4576 0074044 149.6693 210.8807 14.46782165070335 DELTA 2 R/B(1) 1 20453U 90008B 10067.38224479 +.00000873 +00000-0 +70644-4 0 07254 2 20453 035.6283 075.4086 0374969 074.4467 289.7299 14.59837393056653 COSMOS 2058 1 20465U 90010A 10067.66960129 +.00000467 +00000-0 +44561-4 0 07304 2 20465 082.4891 268.7638 0017083 192.4012 167.6764 14.91065017088523 SL-14 R/B 1 20466U 90010B 10066.15392973 .00000106 00000-0 10921-4 0 6137 2 20466 082.5053 337.8152 0023091 064.4540 295.9058 14.79923659 84050 SL-14 R/B 1 20511U 90018B 10066.09287264 .00000104 00000-0 11046-4 0 6211 2 20511 082.5180 267.7193 0017400 177.6119 182.5180 14.78641408 78951 HST 1 20580U 90037B 10066.57864224 +.00000570 +00000-0 +30822-4 0 05329 2 20580 028.4687 183.1574 0003395 198.8317 161.2293 15.00913799889472 SL-16 R/B 1 20625U 90046B 10066.16013563 -.00000099 00000-0 -26736-4 0 5323 2 20625 071.0022 328.8520 0015116 193.4896 166.5814 14.14384881 21838 COSMOS 2084 1 20663U 90055A 10066.10831289 .00000143 00000-0 34371-4 0 7742 2 20663 062.7933 057.9636 0127424 047.9079 313.2776 14.85404511 64014 SL-6 R/B(2) 1 20666U 90055D 10067.86360184 +.00000221 +00000-0 +40560-4 0 08442 2 20666 062.7880 342.8648 0136608 065.6573 295.8690 14.86481765065464 SL-8 R/B 1 20775U 90078B 10067.78556585 +.00002663 +00000-0 +15133-3 0 01612 2 20775 082.9388 010.9370 0728160 048.3393 317.7865 13.98619233973152 SL-8 R/B 1 21088U 91006B 10067.36783201 -.00000013 +00000-0 -28756-4 0 06567 2 21088 082.9418 195.4777 0022063 194.7255 165.3260 13.76740559959855 OKEAN 3 1 21397U 91039A 10067.72165066 +.00000255 +00000-0 +25589-4 0 09154 2 21397 082.5235 130.9190 0021654 083.4902 276.8772 14.86916004014188 COSMOS 2151 1 21422U 91042A 10065.57013554 .00000092 00000-0 73783-5 0 5438 2 21422 082.4964 248.3288 0016540 138.9410 221.3015 14.87562330 12560 SL-14 R/B 1 21423U 91042B 10066.11117302 .00000112 00000-0 12252-4 0 4150 2 21423 082.4894 283.6971 0016762 316.7586 043.2317 14.78420298 9546 ERS 1 1 21574U 91050A 10067.62806662 -.00000062 +00000-0 -73821-5 0 06920 2 21574 098.1552 076.5756 0034066 358.5683 001.5387 14.35697694976037 ARIANE 40 R/B 1 21610U 91050F 10067.72862383 +.00000102 +00000-0 +47755-4 0 02659 2 21610 098.6744 040.6587 0002607 306.6404 053.4545 14.39142271977652 UARS 1 21701U 91063B 10067.95727964 +.00009212 +00000-0 +11230-3 0 09212 2 21701 056.9733 280.7396 0064798 335.6906 024.1100 15.58858985020458 INTERCOSMOS 25 1 21819U 91086A 10067.80580176 +.00001080 +00000-0 +21656-3 0 00087 2 21819 082.5589 213.2997 1548294 315.5392 033.1069 11.99089698793083 SL-14 R/B 1 21820U 91086B 10066.08218481 .00000152 00000-0 23408-4 0 9137 2 21820 082.5485 243.7805 1588687 058.4624 316.1848 11.90893164789960 SL-8 R/B 1 21876U 92008B 10067.67529163 +.00000035 +00000-0 +20405-4 0 06794 2 21876 082.9238 291.9155 0033262 250.9297 108.8247 13.75381506906059 SL-8 R/B 1 21938U 92020B 10065.35953229 .00000041 00000-0 26598-4 0 6970 2 21938 082.9315 174.7800 0030656 053.3478 307.0482 13.75042878897733 SL-16 R/B 1 22220U 92076B 10067.78101008 -.00000268 +00000-0 -11116-3 0 01310 2 22220 070.9961 251.6824 0012624 352.5898 007.5025 14.16152339894527 SL-16 R/B 1 22285U 92093B 10066.04996156 .00000088 00000-0 70414-4 0 1364 2 22285 071.0208 029.3437 0006094 228.9923 131.0644 14.14747854886423 COSMOS 2228 1 22286U 92094A 10067.74406102 +.00000233 +00000-0 +25648-4 0 09966 2 22286 082.5233 350.2428 0020287 269.6442 090.2508 14.83116845928038 SL-16 R/B 1 22566U 93016B 10066.03051329 .00000586 00000-0 32905-3 0 8660 2 22566 071.0043 247.3086 0011617 222.2601 137.7699 14.14661991875171 COSMOS 2242 1 22626U 93024A 10066.01957660 .00000201 00000-0 21652-4 0 7501 2 22626 082.5223 019.4928 0018875 277.2797 082.6272 14.83267093911411 SL-16 R/B 1 22803U 93059B 10067.59323502 +.00000031 +00000-0 +39394-4 0 00913 2 22803 070.9891 088.4121 0015746 115.2681 245.0080 14.16543904851912 ARIANE 40 R/B 1 22830U 93061H 10067.83214590 +.00000008 +00000-0 +20007-4 0 09700 2 22830 098.6115 019.1698 0011399 141.7632 218.4375 14.30498150858206 COSMOS 2278 1 23087U 94023A 10067.81328461 -.00000018 +00000-0 +15639-4 0 01300 2 23087 071.0556 150.9697 0010615 304.8104 055.2015 14.13311730818982 SL-16 R/B 1 23088U 94023B 10066.11727656 .00000266 00000-0 16336-3 0 7597 2 23088 070.9984 102.0827 0004203 204.9220 155.1682 14.14470700819529 SL-16 R/B 1 23343U 94074B 10067.83674061 +.00000222 +00000-0 +40647-4 0 07278 2 23343 098.0659 036.9393 0006247 303.6406 056.4203 14.75013438824873 SL-16 R/B 1 23405U 94077B 10067.86682449 -.00000048 +00000-0 +00000-0 0 02202 2 23405 070.9846 041.2842 0002400 339.6158 020.4882 14.14933992789601 ERS 2 1 23560U 95021A 10066.03326549 .00000226 00000-0 10000-3 0 9745 2 23560 098.5292 142.3661 0001219 092.8246 029.1609 14.32255533777832 ARIANE 40+ R/B 1 23561U 95021B 10067.84142388 +.00000041 +00000-0 +28961-4 0 05515 2 23561 098.4744 019.1002 0006217 220.7950 139.2773 14.36413813779581 SL-16 R/B 1 23705U 95058B 10066.04591947 .00000102 00000-0 77554-4 0 554 2 23705 071.0201 206.9040 0011703 022.9778 337.1840 14.14878910741043 SL-16 R/B 1 24298U 96051B 10066.06160150 .00000441 00000-0 26492-3 0 2817 2 24298 070.8814 261.1762 0018217 193.1137 166.9532 14.12418001696357 ORBVIEW 2 (SEASTAR) 1 24883U 97037A 10067.40661336 +.00000052 +00000-0 +20844-4 0 00758 2 24883 098.3701 198.4566 0002514 100.5200 259.6305 14.60027421670992 SL-16 R/B 1 25400U 98043G 10067.92755995 -.00000013 +00000-0 +11988-4 0 04520 2 25400 098.3365 108.1121 0009625 172.8058 187.3258 14.25109056606575 SL-16 R/B 1 25407U 98045B 10065.97256089 .00000291 00000-0 17304-3 0 2726 2 25407 071.0076 228.4518 0009115 292.0076 068.0073 14.15512461599853 ISS (ZARYA) 1 25544U 98067A 10066.17843750 .00014378 00000-0 10419-3 0 7188 2 25544 051.6477 034.3005 0007652 023.0080 154.7514 15.73697725647400 SL-8 R/B 1 25723U 99022C 10067.72925556 +.00001486 +00000-0 +90642-4 0 05187 2 25723 048.4404 158.3711 0021810 255.3892 104.4619 15.16347636599445 CZ-4 R/B 1 25732U 99025C 10066.03480085 -.00000018 00000-0 12274-4 0 3371 2 25732 098.6804 039.7387 0038180 125.4823 234.9934 14.17200703559938 OKEAN O 1 25860U 99039A 10066.08984565 .00000045 00000-0 14289-4 0 9312 2 25860 097.8215 042.3221 0001861 066.2304 293.9091 14.73618886571868 SL-16 R/B 1 25861U 99039B 10067.77520165 +.00000000 +00000-0 +70090-5 0 03017 2 25861 097.7319 050.1508 0017052 030.3504 329.8692 14.76634004573389 SL-14 R/B 1 26874U 01032B 10066.17570955 .00001297 00000-0 36513-4 0 3877 2 26874 082.4823 152.0568 0021347 282.2791 077.6068 15.35250209480616 ENVISAT 1 27386U 02009A 10065.73821581 .00000041 00000-0 31491-4 0 8439 2 27386 098.5477 134.3231 0000911 094.1595 058.3213 14.32247627419070 IDEFIX/ARIANE 42P 1 27422U 02021B 10067.79279888 +.00000060 +00000-0 +41008-4 0 02822 2 27422 098.4931 145.5934 0012588 162.4990 197.6601 14.28535008407185 AQUA 1 27424U 02022A 10067.71511911 +.00000102 +00000-0 +32737-4 0 05787 2 27424 098.2094 010.7149 0001652 072.1760 287.9602 14.57122354417282 CZ-4B R/B 1 27432U 02024C 10067.34545366 -.00000034 +00000-0 +40004-5 0 08176 2 27432 098.6078 046.2772 0051321 033.0239 327.4123 14.13617073403235 ADEOS 2 1 27597U 02056A 10067.77107983 +.00000038 +00000-0 +33338-4 0 00917 2 27597 098.4382 128.2643 0000433 146.6021 213.5182 14.26196752376508 H-2A R/B 1 27601U 02056E 10067.80866542 +.00000058 +00000-0 +37646-4 0 08624 2 27601 098.5575 158.6648 0072410 222.9630 136.5881 14.30739599377709 H-2A R/B 1 27700U 03009C 10067.95078356 +.00004998 +00000-0 +12643-3 0 00737 2 27700 097.0039 083.9398 0039184 234.7216 125.0317 15.39413878388407 CZ-4 R/B 1 28059U 03049C 10067.79834440 +.00000017 +00000-0 +16284-4 0 08175 2 28059 098.5545 199.1870 0052090 047.3192 313.2387 14.51457039338054 CZ-2C R/B 1 28222U 04012C 10066.15363216 -.00000387 00000-0 -27600-4 0 8812 2 28222 097.4031 105.0984 0053309 248.2068 111.3471 14.97156526321324 SL-16 R/B 1 28353U 04021B 10067.81492348 +.00000346 +00000-0 +20761-3 0 05843 2 28353 070.9970 250.1352 0006512 268.5257 091.5108 14.13927826296512 CZ-4B R/B 1 28471U 04044B 10067.92815138 +.00004746 +00000-0 +10639-3 0 05893 2 28471 096.9670 084.6447 0102585 116.7729 244.4054 15.38400246298586 CZ-2C R/B 1 28480U 04046B 10067.62741748 -.00000182 +00000-0 -54763-4 0 06156 2 28480 098.1703 323.3408 0143885 158.6608 202.0628 14.24841936275701 ARIANE 5 R/B 1 28499U 04049H 10066.06710624 .00000039 00000-0 13048-4 0 6559 2 28499 098.2928 055.6347 0097998 111.5850 249.5853 14.77151704281087 CZ-2D R/B 1 28738U 05024B 10065.66592470 .00001159 00000-0 95722-4 0 5856 2 28738 097.7741 085.8186 0012461 021.7342 338.4410 15.00896271255626 ASTRO E2 1 28773U 05025A 10067.32953642 +.00000602 +00000-0 +40432-4 0 02041 2 28773 031.4048 035.8147 0006606 289.5512 070.4417 15.00969788255926 ALOS 1 28931U 06002A 10065.77674679 .00000127 00000-0 36341-4 0 6130 2 28931 098.1609 142.1966 0001164 095.7229 264.4103 14.59569212219201 H-2A R/B 1 28932U 06002B 10066.09430569 .00000378 00000-0 50036-4 0 3328 2 28932 098.2341 198.8111 0105688 308.3750 050.8004 14.82726845222657 ASTRO F (AKARI) 1 28939U 06005A 10065.91835936 .00000042 00000-0 19355-4 0 2220 2 28939 098.2541 071.8974 0009386 086.4878 273.7385 14.57602308214362 M-5 R/B 1 28942U 06005D 10065.60442308 .00031374 28656-5 19917-3 0 1638 2 28942 098.1533 262.4915 0144476 324.7719 034.4049 15.63695538226830 RESURS DK-1 1 29228U 06021A 10066.10491326 .00001900 00000-0 43850-4 0 1920 2 29228 069.9323 030.5353 0156192 110.3022 251.4963 15.33066965208610 COSMOS 2421 1 29247U 06026A 10067.91229781 +.00051441 +00000-0 +38446-3 0 09882 2 29247 065.0321 088.8343 0013319 283.5419 076.4259 15.72285732210521 GENESIS 1 1 29252U 06029A 10067.59955937 +.00000587 +00000-0 +55593-4 0 09983 2 29252 064.5091 229.2760 0002678 036.4286 323.7020 15.03541478200666 H-2A R/B 1 29394U 06037B 10065.81252493 .00009278 00000-0 21056-3 0 689 2 29394 097.3495 196.6437 0035262 126.9984 233.4575 15.42607288195635 CZ-4 R/B 1 29507U 06046C 10066.14599578 -.00000311 00000-0 -24206-4 0 1010 2 29507 097.6626 069.0089 0044748 154.2004 206.1492 14.92496337183471 SL-8 R/B 1 29659U 06060B 10067.86438698 +.00002379 +00000-0 +84688-4 0 09459 2 29659 098.0911 194.6643 0038426 039.0476 321.3509 15.29445686179477 ATLAS 5 CENTAUR R/B 1 30778U 07006G 10067.73638003 +.00001543 +00000-0 +80292-4 0 07987 2 30778 035.7029 190.8503 0031054 042.5463 317.7696 15.16136363166261 CZ-2C R/B 1 31114U 07010B 10066.12448450 -.00000101 00000-0 -28965-4 0 7591 2 31114 098.2427 090.6268 0060716 026.5497 333.8819 14.18642697150434 GENESIS 2 1 31789U 07028A 10065.75034188 .00000225 00000-0 29637-4 0 7452 2 31789 064.5064 266.6447 0043416 223.9770 135.7888 15.03210313147593 COSMOS 2428 1 31792U 07029A 10066.14306713 .00000137 00000-0 10000-3 0 9881 2 31792 070.9751 221.1230 0010421 321.1663 016.5072 14.12279948138611 SL-16 R/B 1 31793U 07029B 10065.93555577 .00000291 00000-0 17803-3 0 7890 2 31793 070.9741 213.1730 0001604 257.1653 102.9290 14.14056635138752